| time (UTC) | temp F | wind direction | speed MPH | gust MPH | rain 1hr in | rain 24hr in | rain mn in | humidity % | barometer mb |
| 20260507085037 | 58 | 306 | 1.0 | 5.0 | 0.00 | 0.08 | 0.08 | 86 | 1009.5 |
| 20260507084024 | 58 | 28 | 0.0 | 5.0 | 0.00 | 0.08 | 0.08 | 86 | 1009.3 |
| 20260507083032 | 58 | 303 | 0.0 | 3.0 | 0.00 | 0.08 | 0.08 | 88 | 1009.4 |
| 20260507082020 | 58 | 300 | 1.0 | 4.0 | 0.00 | 0.08 | 0.08 | 88 | 1009.2 |
| 20260507081035 | 58 | 331 | 0.0 | 0.0 | 0.00 | 0.08 | 0.08 | 89 | 1008.8 |
| 20260507080023 | 59 | 284 | 0.0 | 3.0 | 0.00 | 0.08 | 0.08 | 89 | 1008.7 |
| 20260507075033 | 59 | 41 | 0.0 | 2.0 | 0.00 | 0.08 | 0.08 | 89 | 1008.5 |
| 20260507074023 | 59 | 355 | 0.0 | 9.0 | 0.00 | 0.08 | 0.08 | 89 | 1008.6 |
| 20260507073055 | 59 | 323 | 2.0 | 8.0 | 0.00 | 0.08 | 0.08 | 90 | 1009.1 |
| 20260507072020 | 60 | 312 | 0.0 | 7.0 | 0.00 | 0.08 | 0.08 | 90 | 1008.9 |
| 20260507071028 | 60 | 314 | 0.0 | 9.0 | 0.00 | 0.08 | 0.08 | 90 | 1008.8 |
| 20260507070059 | 60 | 311 | 0.0 | 6.0 | 0.00 | 0.08 | 0.08 | 91 | 1008.6 |
| 20260507065028 | 61 | 305 | 3.0 | 6.0 | 0.00 | 0.08 | 0.08 | 91 | 1008.3 |
| 20260507064016 | 61 | 63 | 0.0 | 4.0 | 0.00 | 0.08 | 0.08 | 91 | 1007.4 |
| 20260507063029 | 61 | 315 | 2.0 | 6.0 | 0.00 | 0.08 | 0.08 | 91 | 1007.3 |
| 20260507062036 | 62 | 47 | 0.0 | 2.0 | 0.00 | 0.08 | 0.08 | 91 | 1007.0 |
| 20260507061027 | 62 | 313 | 0.0 | 2.0 | 0.00 | 0.08 | 0.08 | 91 | 1007.5 |
| 20260507060035 | 62 | 26 | 0.0 | 2.0 | 0.00 | 0.08 | 0.08 | 91 | 1007.5 |
| 20260507055043 | 63 | 302 | 0.0 | 1.0 | 0.00 | 0.08 | 0.08 | 91 | 1008.0 |
| 20260507054028 | 63 | 62 | 0.0 | 3.0 | 0.00 | 0.08 | 0.08 | 91 | 1007.7 |
| 20260507053023 | 64 | 331 | 0.0 | 5.0 | 0.00 | 0.08 | 0.08 | 93 | 1008.0 |
| 20260507052029 | 64 | 284 | 0.0 | 4.0 | 0.00 | 0.08 | 0.08 | 94 | 1008.0 |
| 20260507051037 | 63 | 278 | 0.0 | 2.0 | 0.00 | 0.08 | 0.08 | 94 | 1008.1 |
| 20260507050025 | 63 | 159 | 0.0 | 0.0 | 0.00 | 0.08 | 0.08 | 94 | 1007.9 |
| 20260507045019 | 63 | 159 | 0.0 | 0.0 | 0.00 | 0.08 | 0.08 | 94 | 1007.8 |
| 20260507044047 | 62 | 159 | 0.0 | 0.0 | 0.00 | 0.08 | 0.08 | 93 | 1007.8 |
| 20260507043034 | 62 | 159 | 0.0 | 0.0 | 0.00 | 0.08 | 0.08 | 93 | 1008.1 |
| 20260507042021 | 62 | 159 | 0.0 | 0.0 | 0.00 | 0.08 | 0.08 | 93 | 1008.0 |
| 20260507041034 | 62 | 159 | 0.0 | 0.0 | 0.00 | 0.08 | 0.08 | 93 | 1007.7 |
| 20260507040024 | 63 | 159 | 0.0 | 0.0 | 0.00 | 0.08 | 0.08 | 93 | 1007.8 |
| 20260507035033 | 63 | 159 | 0.0 | 0.0 | 0.00 | 0.08 | 0.08 | 93 | 1007.9 |
| 20260507034024 | 62 | 159 | 0.0 | 0.0 | 0.00 | 0.08 | 0.08 | 93 | 1007.9 |
| 20260507033032 | 62 | 159 | 0.0 | 0.0 | 0.00 | 0.08 | 0.08 | 93 | 1008.3 |
| 20260507032022 | 62 | 159 | 0.0 | 0.0 | 0.00 | 0.08 | 0.08 | 92 | 1007.8 |
| 20260507031029 | 62 | 159 | 0.0 | 0.0 | 0.00 | 0.08 | 0.08 | 92 | 1007.4 |
| 20260507030023 | 63 | 159 | 0.0 | 0.0 | 0.00 | 0.08 | 0.08 | 92 | 1007.2 |
| 20260507025029 | 63 | 159 | 0.0 | 0.0 | 0.00 | 0.08 | 0.08 | 92 | 1006.9 |
| 20260507024038 | 63 | 159 | 0.0 | 0.0 | 0.00 | 0.08 | 0.08 | 92 | 1007.1 |
| 20260507023027 | 63 | 159 | 0.0 | 0.0 | 0.00 | 0.08 | 0.08 | 92 | 1007.2 |
| 20260507022017 | 63 | 159 | 0.0 | 0.0 | 0.00 | 0.08 | 0.08 | 91 | 1007.5 |
| 20260507021027 | 63 | 159 | 0.0 | 0.0 | 0.00 | 0.08 | 0.08 | 91 | 1007.8 |
| 20260507020038 | 63 | 159 | 0.0 | 0.0 | 0.00 | 0.08 | 0.08 | 90 | 1008.0 |
| 20260507015021 | 63 | 159 | 0.0 | 0.0 | 0.00 | 0.08 | 0.08 | 90 | 1007.7 |
| 20260507014033 | 63 | 159 | 0.0 | 0.0 | 0.00 | 0.08 | 0.08 | 89 | 1007.8 |
| 20260507013021 | 64 | 159 | 0.0 | 0.0 | 0.00 | 0.08 | 0.08 | 89 | 1007.6 |
| 20260507012027 | 64 | 159 | 0.0 | 0.0 | 0.00 | 0.08 | 0.08 | 88 | 1007.4 |
| 20260507010028 | 65 | 159 | 0.0 | 0.0 | 0.00 | 0.08 | 0.08 | 87 | 1007.6 |
| 20260507005055 | 66 | 159 | 0.0 | 0.0 | 0.00 | 0.08 | 0.08 | 84 | 1007.6 |
| 20260507004020 | 67 | 159 | 0.0 | 0.0 | 0.00 | 0.08 | 0.08 | 84 | 1007.5 |
| 20260507003050 | 68 | 159 | 0.0 | 0.0 | 0.00 | 0.08 | 0.08 | 82 | 1007.5 |
| 20260507002019 | 68 | 159 | 0.0 | 0.0 | 0.00 | 0.08 | 0.08 | 82 | 1007.5 |
| 20260507001027 | 69 | 159 | 0.0 | 1.0 | 0.00 | 0.08 | 0.08 | 81 | 1007.5 |
| 20260507000034 | 69 | 237 | 1.0 | 3.0 | 0.00 | 0.08 | 0.08 | 81 | 1007.2 |
| 20260506235020 | 70 | 240 | 0.0 | 1.0 | 0.00 | 0.08 | 0.08 | 80 | 1006.9 |
| 20260506234051 | 70 | 240 | 1.0 | 2.0 | 0.00 | 0.08 | 0.08 | 80 | 1007.1 |
| 20260506233023 | 70 | 233 | 0.0 | 2.0 | 0.00 | 0.08 | 0.08 | 81 | 1007.1 |
| 20260506232033 | 70 | 174 | 0.0 | 6.0 | 0.00 | 0.08 | 0.08 | 80 | 1007.1 |
| 20260506231029 | 70 | 184 | 1.0 | 3.0 | 0.00 | 0.08 | 0.08 | 80 | 1007.1 |
| 20260506230105 | 70 | 164 | 1.0 | 4.0 | 0.00 | 0.08 | 0.08 | 79 | 1006.9 |
| 20260506225047 | 70 | 278 | 1.0 | 6.0 | 0.00 | 0.08 | 0.08 | 79 | 1007.0 |
| 20260506224029 | 71 | 261 | 4.0 | 7.0 | 0.00 | 0.08 | 0.08 | 79 | 1007.0 |
| 20260506223104 | 71 | 198 | 5.0 | 11.0 | 0.00 | 0.08 | 0.08 | 78 | 1006.9 |
| 20260506222023 | 71 | 292 | 3.0 | 11.0 | 0.00 | 0.08 | 0.08 | 78 | 1006.8 |
| 20260506221033 | 71 | 248 | 5.0 | 12.0 | 0.00 | 0.08 | 0.08 | 79 | 1006.7 |
| 20260506220021 | 71 | 246 | 4.0 | 12.0 | 0.00 | 0.08 | 0.08 | 79 | 1007.0 |
| 20260506215034 | 71 | 284 | 4.0 | 9.0 | 0.00 | 0.08 | 0.08 | 79 | 1007.0 |
| 20260506214025 | 70 | 233 | 1.0 | 10.0 | 0.00 | 0.08 | 0.08 | 80 | 1006.9 |
| 20260506213034 | 70 | 208 | 4.0 | 12.0 | 0.00 | 0.08 | 0.08 | 79 | 1007.0 |
| 20260506212024 | 70 | 177 | 3.0 | 15.0 | 0.00 | 0.08 | 0.08 | 80 | 1007.0 |
| 20260506211034 | 70 | 220 | 4.0 | 11.0 | 0.00 | 0.08 | 0.08 | 80 | 1007.1 |
| 20260506210044 | 70 | 211 | 4.0 | 12.0 | 0.00 | 0.08 | 0.08 | 80 | 1007.2 |
| 20260506205034 | 69 | 196 | 5.0 | 12.0 | 0.00 | 0.08 | 0.08 | 80 | 1006.9 |
| 20260506204045 | 69 | 229 | 3.0 | 11.0 | 0.00 | 0.08 | 0.08 | 80 | 1007.0 |
| 20260506203018 | 69 | 217 | 5.0 | 10.0 | 0.00 | 0.08 | 0.08 | 81 | 1007.1 |
| 20260506202045 | 68 | 197 | 4.0 | 9.0 | 0.00 | 0.08 | 0.08 | 81 | 1006.9 |
| 20260506201031 | 68 | 173 | 2.0 | 11.0 | 0.00 | 0.08 | 0.08 | 82 | 1007.1 |
| 20260506200019 | 68 | 150 | 1.0 | 9.0 | 0.00 | 0.08 | 0.08 | 83 | 1007.1 |
| 20260506195047 | 68 | 219 | 1.0 | 8.0 | 0.00 | 0.08 | 0.08 | 83 | 1007.2 |
| 20260506194019 | 68 | 219 | 0.0 | 6.0 | 0.00 | 0.08 | 0.08 | 83 | 1007.6 |
| 20260506193048 | 68 | 245 | 5.0 | 9.0 | 0.00 | 0.08 | 0.08 | 82 | 1007.8 |
| 20260506192056 | 68 | 250 | 5.0 | 9.0 | 0.00 | 0.08 | 0.08 | 82 | 1008.0 |
| 20260506191023 | 68 | 252 | 4.0 | 11.0 | 0.00 | 0.08 | 0.08 | 82 | 1007.9 |
| 20260506190034 | 68 | 257 | 4.0 | 17.0 | 0.00 | 0.08 | 0.08 | 82 | 1007.9 |
| 20260506185020 | 68 | 256 | 4.0 | 7.0 | 0.00 | 0.08 | 0.08 | 82 | 1008.2 |
| 20260506184030 | 68 | 269 | 5.0 | 10.0 | 0.00 | 0.08 | 0.08 | 83 | 1008.4 |
| 20260506183038 | 68 | 258 | 3.0 | 11.0 | 0.00 | 0.08 | 0.08 | 82 | 1008.5 |
| 20260506182028 | 68 | 259 | 5.0 | 11.0 | 0.00 | 0.08 | 0.08 | 82 | 1008.7 |
| 20260506181036 | 68 | 175 | 6.0 | 12.0 | 0.00 | 0.08 | 0.08 | 82 | 1008.6 |
| 20260506180044 | 67 | 256 | 4.0 | 10.0 | 0.00 | 0.08 | 0.08 | 83 | 1008.4 |
| 20260506175049 | 67 | 213 | 4.0 | 12.0 | 0.00 | 0.08 | 0.08 | 84 | 1008.7 |
| 20260506174058 | 66 | 221 | 4.0 | 10.0 | 0.00 | 0.08 | 0.08 | 85 | 1008.7 |
| 20260506173028 | 66 | 163 | 1.0 | 8.0 | 0.00 | 0.08 | 0.08 | 85 | 1008.8 |
| 20260506172034 | 66 | 189 | 2.0 | 7.0 | 0.00 | 0.08 | 0.08 | 86 | 1008.8 |
| 20260506171023 | 65 | 164 | 0.0 | 9.0 | 0.00 | 0.08 | 0.08 | 87 | 1008.8 |
| 20260506170034 | 65 | 242 | 2.0 | 10.0 | 0.01 | 0.08 | 0.08 | 87 | 1009.0 |
| 20260506165044 | 64 | 235 | 3.0 | 11.0 | 0.02 | 0.08 | 0.08 | 87 | 1009.0 |
| 20260506164030 | 64 | 219 | 8.0 | 12.0 | 0.02 | 0.08 | 0.08 | 88 | 1009.5 |
| 20260506163038 | 63 | 229 | 5.0 | 14.0 | 0.03 | 0.08 | 0.08 | 89 | 1009.3 |
| 20260506162025 | 63 | 187 | 1.0 | 6.0 | 0.05 | 0.08 | 0.08 | 90 | 1009.1 |
| 20260506161056 | 63 | 149 | 2.0 | 9.0 | 0.06 | 0.08 | 0.08 | 90 | 1009.2 |
| 20260506160023 | 63 | 219 | 2.0 | 7.0 | 0.06 | 0.07 | 0.07 | 89 | 1009.6 |
| 20260506155029 | 63 | 138 | 4.0 | 8.0 | 0.06 | 0.07 | 0.07 | 89 | 1009.6 |
| 20260506154019 | 63 | 229 | 2.0 | 6.0 | 0.05 | 0.06 | 0.06 | 88 | 1009.8 |
| 20260506153059 | 63 | 155 | 1.0 | 11.0 | 0.04 | 0.05 | 0.05 | 87 | 1009.8 |
| 20260506152039 | 64 | 226 | 4.0 | 9.0 | 0.02 | 0.03 | 0.03 | 85 | 1010.0 |
| 20260506151024 | 64 | 243 | 3.0 | 11.0 | 0.01 | 0.02 | 0.02 | 84 | 1010.1 |
| 20260506150033 | 65 | 200 | 4.0 | 7.0 | 0.00 | 0.01 | 0.01 | 83 | 1010.1 |
| 20260506145021 | 65 | 226 | 2.0 | 9.0 | 0.01 | 0.01 | 0.01 | 83 | 1010.2 |
| 20260506144028 | 65 | 148 | 2.0 | 6.0 | 0.01 | 0.01 | 0.01 | 84 | 1010.1 |
| 20260506143036 | 64 | 210 | 2.0 | 5.0 | 0.01 | 0.01 | 0.01 | 84 | 1009.9 |
| 20260506142022 | 64 | 208 | 1.0 | 5.0 | 0.01 | 0.01 | 0.01 | 83 | 1009.9 |
| 20260506141033 | 64 | 244 | 3.0 | 5.0 | 0.01 | 0.01 | 0.01 | 83 | 1010.0 |
| 20260506140024 | 65 | 203 | 0.0 | 4.0 | 0.01 | 0.01 | 0.01 | 81 | 1010.1 |
| 20260506135031 | 65 | 254 | 3.0 | 9.0 | 0.00 | 0.00 | 0.00 | 80 | 1010.2 |
| 20260506134018 | 66 | 219 | 1.0 | 5.0 | 0.00 | 0.00 | 0.00 | 78 | 1009.9 |
| 20260506133034 | 66 | 212 | 1.0 | 6.0 | 0.00 | 0.00 | 0.00 | 77 | 1010.2 |
| 20260506132040 | 67 | 275 | 1.0 | 11.0 | 0.00 | 0.00 | 0.00 | 75 | 1010.0 |
| 20260506131021 | 67 | 147 | 1.0 | 8.0 | 0.00 | 0.00 | 0.00 | 75 | 1010.0 |
| 20260506130030 | 67 | 155 | 4.0 | 7.0 | 0.00 | 0.00 | 0.00 | 74 | 1009.7 |
| 20260506125041 | 67 | 163 | 3.0 | 11.0 | 0.00 | 0.00 | 0.00 | 74 | 1009.8 |
| 20260506124026 | 67 | 94 | 3.0 | 9.0 | 0.00 | 0.00 | 0.00 | 73 | 1009.8 |
| 20260506123033 | 67 | 263 | 1.0 | 9.0 | 0.00 | 0.00 | 0.00 | 74 | 1009.8 |
| 20260506122021 | 67 | 153 | 1.0 | 9.0 | 0.00 | 0.00 | 0.00 | 74 | 1009.8 |
| 20260506121032 | 67 | 148 | 2.0 | 7.0 | 0.00 | 0.00 | 0.00 | 74 | 1010.1 |
| 20260506120042 | 66 | 216 | 3.0 | 9.0 | 0.00 | 0.00 | 0.00 | 74 | 1010.1 |
| 20260506115027 | 66 | 192 | 4.0 | 9.0 | 0.00 | 0.00 | 0.00 | 74 | 1010.1 |
| 20260506114056 | 66 | 46 | 2.0 | 7.0 | 0.00 | 0.00 | 0.00 | 75 | 1010.1 |
| 20260506113022 | 66 | 217 | 0.0 | 6.0 | 0.00 | 0.00 | 0.00 | 75 | 1010.0 |
| 20260506112037 | 66 | 165 | 3.0 | 6.0 | 0.00 | 0.00 | 0.00 | 75 | 1009.9 |
| 20260506111024 | 65 | 229 | 4.0 | 9.0 | 0.00 | 0.00 | 0.00 | 75 | 1010.0 |
| 20260506110052 | 65 | 110 | 3.0 | 9.0 | 0.00 | 0.00 | 0.00 | 76 | 1009.8 |
| 20260506105037 | 64 | 130 | 1.0 | 5.0 | 0.00 | 0.00 | 0.00 | 77 | 1009.8 |
| 20260506104027 | 64 | 192 | 1.0 | 5.0 | 0.00 | 0.00 | 0.00 | 77 | 1009.9 |
| 20260506103018 | 64 | 182 | 2.0 | 10.0 | 0.00 | 0.00 | 0.00 | 77 | 1009.7 |
| 20260506102027 | 64 | 205 | 1.0 | 4.0 | 0.00 | 0.00 | 0.00 | 78 | 1009.6 |
| 20260506101048 | 64 | 169 | 1.0 | 6.0 | 0.00 | 0.00 | 0.00 | 78 | 1009.5 |
| 20260506100037 | 64 | 225 | 3.0 | 7.0 | 0.00 | 0.00 | 0.00 | 78 | 1009.6 |
| 20260506095044 | 64 | 209 | 1.0 | 5.0 | 0.00 | 0.00 | 0.00 | 79 | 1009.6 |
| 20260506094029 | 64 | 173 | 1.0 | 5.0 | 0.00 | 0.00 | 0.00 | 79 | 1009.7 |
| 20260506093017 | 64 | 225 | 3.0 | 7.0 | 0.00 | 0.00 | 0.00 | 79 | 1009.6 |
| 20260506092031 | 64 | 252 | 2.0 | 6.0 | 0.00 | 0.00 | 0.00 | 79 | 1009.7 |
| 20260506091019 | 65 | 130 | 2.0 | 8.0 | 0.00 | 0.00 | 0.00 | 78 | 1009.8 |
| 20260506090048 | 65 | 267 | 2.0 | 9.0 | 0.00 | 0.00 | 0.00 | 78 | 1009.8 |